Weather History for Cortez, CO

Change the Weather History Date:

Wednesday, September 7, 2011

  Actual Average Record
Temperature  
Mean Temperature 65 °F 64 °F  
Max Temperature 82 °F 81 °F 91 °F (2013)
Min Temperature 48 °F 46 °F 37 °F (2010)
Degree Days  
Heating Degree Days 0 3  
Month to date heating degree days 14  
Since 1 July heating degree days 26  
Cooling Degree Days 0 1  
Month to date cooling degree days 10  
Year to date cooling degree days 419  
Growing Degree Days 15 (Base 50)    
Moisture  
Dew Point 45 °F    
Average Humidity 57    
Maximum Humidity 93    
Minimum Humidity 21    
Precipitation  
Precipitation 0.01 in 0.05 in 0.61 in (2002)
Month to date precipitation 0.35  
Year to date precipitation 8.79  
Sea Level Pressure  
Sea Level Pressure 30.10 in    
Wind  
Wind Speed 4 mph (North)    
Max Wind Speed 15 mph    
Max Gust Speed 24 mph    
Visibility 10 miles    
Events      
T = Trace of Precipitation, MM = Missing Value Source: NWS Daily Summary

Daily Weather History Graph

Daily Weather History Graph

Search for Another Location

Airport:

Trip Planner

Search our weather history database for the weather conditions in past years. The results will help you decide how hot, cold, wet, or windy it might be!

Date:

Astronomy

Sep. 07, 2011 Rise Set
Actual Time 6:49 AM MDT 7:34 PM MDT
Civil Twilight 6:23 AM MDT 8:01 PM MDT
Nautical Twilight 5:52 AM MDT 8:32 PM MDT
Astronomical Twilight 5:19 AM MDT 9:04 PM MDT
Moon 4:50 PM MDT (9/7) 2:14 AM MDT (9/7)
Length of Visible Light 13h 37m
Length of Day
12h 44m
Waxing Gibbous, 80% of the Moon is Illuminated
Sep 7
Waxing Gibbous
Sep 12
Full
Sep 20
Last Quarter
Sep 27
New
Oct 3
First Quarter

Hourly Weather History & Observations

Time (MDT) Temp. Dew Point Humidity Pressure Visibility Wind Dir Wind Speed Gust Speed Precip Events Conditions
12:53 AM 59.0 °F 57.0 °F 93% 30.09 in 10.0 mi Calm Calm - N/A   Clear
1:53 AM 55.9 °F 54.0 °F 93% 30.09 in 10.0 mi ESE 5.8 mph - N/A   Clear
2:53 AM 54.0 °F 51.1 °F 90% 30.08 in 10.0 mi Calm Calm - N/A   Clear
3:53 AM 52.0 °F 50.0 °F 93% 30.09 in 10.0 mi Calm Calm - N/A   Partly Cloudy
4:53 AM 50.0 °F 48.0 °F 93% 30.10 in 10.0 mi East 3.5 mph - 0.01 in   Clear
5:53 AM 48.9 °F 46.9 °F 93% 30.12 in 10.0 mi NE 3.5 mph - N/A   Clear
6:53 AM 48.0 °F 46.0 °F 93% 30.14 in 10.0 mi ENE 6.9 mph - N/A   Clear
7:53 AM 51.1 °F 48.0 °F 89% 30.17 in 10.0 mi East 3.5 mph - N/A   Clear
8:53 AM 57.9 °F 48.9 °F 72% 30.18 in 10.0 mi Calm Calm - N/A   Clear
10:53 AM 68.0 °F 50.0 °F 52% 30.14 in 10.0 mi SSW 3.5 mph - N/A   Clear
11:53 AM 73.0 °F 48.9 °F 42% 30.11 in 10.0 mi SSE 5.8 mph - N/A   Clear
12:53 PM 78.1 °F 41.0 °F 27% 30.09 in 10.0 mi West 8.1 mph 18.4 mph N/A   Scattered Clouds
1:53 PM 75.9 °F 42.1 °F 30% 30.09 in 10.0 mi West 6.9 mph - N/A   Clear
2:53 PM 82.0 °F 39.9 °F 22% 30.05 in 10.0 mi NW 10.4 mph 17.3 mph N/A   Partly Cloudy
3:53 PM 81.0 °F 39.0 °F 22% 30.05 in 10.0 mi WNW 13.8 mph 19.6 mph N/A   Partly Cloudy
4:53 PM 81.0 °F 37.0 °F 21% 30.06 in 10.0 mi NW 10.4 mph 24.2 mph N/A   Clear
5:53 PM 79.0 °F 36.0 °F 21% 30.06 in 10.0 mi NW 15.0 mph 23.0 mph N/A   Clear
6:53 PM 75.9 °F 37.9 °F 25% 30.08 in 10.0 mi NNW 12.7 mph - N/A   Clear
7:53 PM 72.0 °F 36.0 °F 27% 30.09 in 10.0 mi NNW 9.2 mph - N/A   Clear
8:53 PM 68.0 °F 39.9 °F 36% 30.11 in 10.0 mi North 8.1 mph - N/A   Clear
9:53 PM 61.0 °F 43.0 °F 52% 30.14 in 10.0 mi ESE 4.6 mph - N/A   Clear
11:53 PM 53.1 °F 44.1 °F 71% 30.14 in 10.0 mi ENE 3.5 mph - N/A   Clear